Theta_e
326 325 325 325 324 325 325 324 324 325 326 327 328 328 327 327 327 328 328 328 329 329 329 328 327 327 327 327 327 328 328 328 328 328 328 329 329 330 330 331 331 331
322 323 323 324 324 323 323 323 325 325 324 326 327 327 327 327 327 327 327 327 327 328 327 327 327 327 327 327 328 328 328 328 328 329 329 329 329 330 330 330 331 331
320 320 321 322 322 322 323 323 324 324 323 324 326 326 327 327 327 327 327 327 327 327 327 327 327 327 327 327 328 328 328 328 328 328 329 329 330 330 329 330 331 331
319 319 319 319 320 320 321 322 322 322 323 323 323 324 326 327 327 327 327 328 328 328 328 328 328 328 328 328 328 327 327 327 328 328 329 329 329 330 329 330 330 330
318 318 317 317 317 318 318 319 320 320 321 321 322 322 324 325 326 327 326 326 327 327 328 328 328 328 328 328 327 327 327 326 327 328 329 329 329 329 329 330 331 331
316 316 315 315 315 316 316 317 318 318 318 319 320 321 322 323 324 324 324 324 324 325 326 327 328 328 328 328 327 326 326 327 327 328 329 329 329 329 329 330 331 331
314 314 314 315 315 315 315 316 316 316 317 317 318 319 320 321 322 322 322 322 323 324 325 326 327 327 327 327 327 327 328 329 328 328 328 329 329 329 329 329 330 331
313 314 315 315 315 315 315 316 315 315 316 316 317 318 319 320 320 320 320 321 322 323 324 325 326 326 326 326 327 327 328 328 328 328 328 329 329 329 328 328 329 330
313 314 315 314 314 315 315 315 315 316 316 317 317 317 318 318 319 319 319 320 322 323 322 323 324 324 325 326 326 326 327 326 327 327 327 328 329 329 329 329 329 329
312 313 314 314 314 315 315 315 315 315 316 316 316 316 316 317 317 317 317 318 320 320 321 322 322 323 324 324 325 326 326 326 326 326 326 327 328 328 329 329 329 329
311 312 313 313 314 314 314 314 314 315 315 315 315 315 315 315 315 316 316 317 318 319 319 320 321 322 323 324 324 325 326 326 326 327 327 327 327 327 328 329 329 328
310 311 312 313 313 313 313 313 313 313 313 314 314 314 314 314 314 315 315 316 317 317 318 318 319 320 321 322 323 325 325 326 327 328 327 327 327 327 328 328 329 328
309 309 310 311 311 311 311 311 312 312 312 312 313 313 314 314 314 314 314 315 315 316 317 317 318 318 319 321 322 323 324 325 326 327 328 327 327 327 327 327 328 328
307 308 308 309 309 310 310 310 310 310 310 311 311 312 312 312 313 313 313 314 314 315 315 316 316 317 319 320 321 322 323 323 324 326 326 327 327 327 327 328 327 327
306 306 306 306 307 308 308 309 309 309 309 309 310 310 310 311 311 311 312 312 313 313 314 315 316 316 317 318 319 320 321 322 322 323 324 325 326 327 327 327 327 327
305 305 305 305 305 305 306 306 307 307 308 309 309 309 309 309 309 310 310 310 311 311 312 313 314 315 316 317 318 318 319 320 321 321 322 324 325 326 326 327 327 328
305 305 304 304 304 304 304 304 304 305 306 307 307 308 308 308 308 308 309 309 309 309 310 311 312 313 315 316 317 317 318 319 319 320 321 322 323 324 326 327 327 327
303 303 303 303 303 303 303 303 303 303 303 305 305 306 306 307 307 307 307 307 308 308 309 309 310 311 313 315 316 317 317 318 320 320 321 322 322 323 325 326 326 327
301 301 301 302 302 303 302 301 301 301 301 302 303 304 304 305 305 305 306 306 307 307 307 308 309 309 311 313 315 316 317 318 320 321 321 322 322 323 324 325 326 326
300 300 301 301 301 301 300 299 299 299 300 301 302 302 303 303 303 304 304 305 305 306 306 307 307 308 309 311 313 315 317 318 319 321 321 321 322 322 323 324 324 325
298 299 300 300 299 299 298 298 298 298 298 299 300 301 301 301 302 302 303 303 304 305 305 306 306 307 308 309 311 313 315 317 318 319 320 320 321 321 322 323 323 324
298 298 298 298 297 298 298 298 298 297 297 298 298 299 300 300 300 301 301 302 302 303 304 304 305 305 307 308 309 311 314 315 317 317 318 319 320 321 321 322 323 324
298 297 297 297 297 297 297 297 297 297 297 297 297 298 298 299 300 300 300 301 301 302 302 303 303 304 305 306 308 310 312 314 315 316 316 317 318 319 320 321 322 323
298 298 297 297 297 297 297 296 296 296 296 296 296 296 297 298 299 299 300 300 300 301 301 301 302 302 303 304 306 307 309 311 312 314 315 316 316 317 318 319 320 321
298 298 297 297 296 296 296 296 296 296 296 296 296 296 296 296 297 299 299 300 300 300 300 301 301 301 302 303 304 305 307 308 309 311 313 313 314 315 316 317 318 320
298 298 297 297 296 296 296 296 296 295 295 296 296 296 296 295 296 297 298 299 300 300 300 300 300 300 301 301 302 303 304 305 307 309 309 309 310 312 315 316 317 320
Wind_Speed
13 12 12 12 11 10 9 9 8 8 8 8 8 9 9 9 10 11 12 12 11 11 12 12 13 13 13 14 15 16 17 19 20 21 23 25 26 27 28 29 29 31
4 5 6 8 8 8 7 7 7 8 8 7 7 9 9 9 9 9 10 11 10 10 11 12 13 14 15 15 16 17 18 19 21 22 24 25 26 27 28 28 28 29
4 3 1 1 3 5 6 7 7 8 7 7 8 9 9 9 9 9 9 10 10 9 10 11 12 13 15 15 16 16 17 18 20 21 23 25 25 26 27 27 27 27
6 5 4 3 3 3 4 6 7 8 8 8 9 9 10 9 9 10 10 10 10 10 10 11 12 13 14 15 16 16 16 18 19 20 22 24 24 25 25 25 26 26
6 6 6 5 4 4 3 4 6 7 7 9 10 11 11 12 11 11 11 11 11 11 10 11 12 13 14 14 15 16 17 18 19 19 20 21 22 22 22 23 25 25
7 8 8 8 7 6 5 4 4 5 6 7 9 11 13 14 14 13 12 12 12 12 12 11 12 13 13 13 14 15 17 19 18 17 18 19 18 19 19 20 22 23
8 9 10 10 9 8 7 7 6 5 5 5 7 9 11 13 13 11 10 11 12 13 14 13 14 14 14 14 14 15 15 17 17 16 16 17 16 17 17 19 20 21
11 11 12 12 11 10 9 9 8 7 6 6 6 6 8 10 10 9 8 9 11 13 14 14 14 15 16 16 15 15 15 14 15 15 15 16 16 17 18 18 19 21
12 13 13 12 12 12 12 12 11 11 10 9 7 6 6 7 8 8 8 8 10 14 14 14 15 16 17 17 17 16 17 16 15 15 16 17 17 18 18 19 21 21
14 14 14 13 13 14 14 14 14 13 13 13 12 10 8 8 8 8 9 9 12 14 14 15 16 16 17 18 18 17 18 18 18 17 17 18 18 19 20 21 22 23
15 15 15 15 15 15 16 15 15 15 15 15 15 14 13 11 10 9 9 10 12 14 15 16 18 18 18 18 18 19 19 19 20 20 20 20 20 20 21 22 23 24
17 17 17 16 16 17 17 16 16 16 16 16 15 15 15 14 14 13 11 11 12 14 16 17 19 20 20 20 19 19 19 19 19 20 21 21 20 20 21 22 22 22
19 19 18 18 18 18 17 17 17 16 16 17 16 15 15 15 15 15 15 14 14 15 16 18 19 20 21 21 21 21 20 19 19 20 21 20 20 20 20 20 21 21
19 19 18 18 17 17 17 16 16 16 16 16 16 16 16 17 16 16 15 15 15 16 16 18 19 19 20 20 21 21 21 21 20 21 22 22 21 20 19 19 20 20
20 20 19 19 18 17 17 16 16 16 16 15 16 17 17 17 17 17 16 16 17 17 18 18 19 19 19 20 21 21 22 22 22 21 21 23 23 21 19 19 19 20
20 20 20 20 19 19 18 17 17 16 15 15 15 16 17 17 17 18 18 19 19 19 19 20 20 20 20 20 21 22 22 22 22 21 20 21 22 22 22 20 19 20
18 18 19 19 20 20 19 19 19 18 17 16 16 17 17 18 18 19 20 21 21 21 21 21 21 22 21 20 20 20 21 20 20 20 20 19 20 22 23 22 21 21
18 17 18 18 19 19 20 21 21 21 20 20 19 19 20 20 20 21 21 22 22 22 23 23 23 23 22 20 20 19 20 18 17 17 17 16 17 18 20 22 22 22
19 18 18 18 18 18 20 21 22 23 23 23 22 22 22 22 23 23 22 22 22 22 23 23 23 24 24 22 20 19 19 18 15 14 14 13 13 14 17 20 22 23
21 20 19 18 18 19 21 22 23 23 24 23 23 23 23 24 24 24 24 23 22 22 23 23 24 25 25 25 22 19 18 18 16 14 12 11 11 12 14 17 20 22
24 22 21 20 20 20 22 23 23 23 23 23 22 23 24 25 25 26 25 25 23 22 22 23 25 25 25 26 25 21 17 16 16 15 13 11 11 11 12 14 16 19
26 25 24 23 22 22 23 24 23 23 22 22 22 23 24 25 27 27 28 27 26 25 23 23 24 26 26 26 26 24 19 15 15 16 16 14 12 12 12 13 14 16
27 27 26 24 24 24 25 25 24 23 22 21 21 23 24 26 27 28 29 29 29 29 27 26 25 26 27 27 27 27 23 19 16 16 16 15 14 13 13 13 14 15
28 28 28 26 26 27 27 26 25 24 22 21 22 23 24 25 26 27 28 30 31 31 30 28 27 27 27 28 28 28 26 23 20 18 16 15 14 14 13 13 13 15
29 30 30 29 28 28 28 28 28 26 23 21 21 22 23 24 25 26 28 29 31 32 32 31 30 28 27 28 29 29 28 27 24 21 19 18 18 16 14 13 12 11
28 29 30 31 30 29 28 29 29 28 26 24 22 22 22 24 25 26 27 28 29 31 33 34 34 31 29 27 28 29 30 30 28 25 24 24 23 21 17 15 13 11
Wind_Direction
244 250 251 250 253 256 260 269 279 289 298 308 318 321 322 323 326 328 324 315 307 301 297 292 291 292 288 284 282 281 280 279 277 276 273 271 269 267 266 265 262 258
225 245 253 252 258 263 263 264 271 282 295 305 303 305 310 311 316 325 325 319 309 300 295 292 293 294 291 286 282 281 280 280 280 278 276 274 271 268 266 265 263 260
82 83 73 305 290 280 267 267 271 279 291 300 296 295 300 303 305 307 313 316 309 302 301 300 300 298 294 291 287 284 283 284 284 282 277 274 271 268 265 263 262 259
73 70 61 39 4 323 283 275 277 278 282 287 289 289 288 288 291 291 294 302 302 302 305 304 300 296 294 292 290 288 287 286 286 285 281 275 270 267 264 262 263 260
51 43 35 29 20 5 334 297 289 288 285 283 283 285 283 280 281 284 290 296 300 302 303 302 300 296 293 292 291 290 290 287 287 288 285 278 271 268 264 261 262 261
36 30 28 29 28 21 7 347 329 317 303 293 286 284 283 281 282 288 294 301 305 302 297 297 298 295 292 289 289 291 294 292 289 289 288 284 275 268 263 260 258 257
38 36 37 37 35 30 23 17 8 356 339 320 299 287 282 280 282 291 300 308 310 302 295 293 294 294 292 290 287 289 295 295 292 292 292 288 277 267 263 261 259 256
45 50 49 43 37 34 32 28 22 18 7 349 327 309 295 282 278 284 297 306 306 299 295 295 298 300 301 301 295 290 291 291 290 292 294 289 279 270 267 266 263 260
52 56 53 44 38 37 36 32 28 23 16 7 0 352 334 310 293 285 289 296 295 294 297 299 303 305 306 310 308 299 292 288 285 285 286 284 279 273 271 269 267 264
54 56 53 44 39 38 36 33 29 25 21 17 14 11 6 352 329 305 293 291 288 292 300 303 304 306 308 312 313 307 297 290 288 285 281 280 279 276 271 269 268 267
54 55 53 47 43 41 39 35 31 27 24 22 18 15 14 10 359 341 320 307 300 302 306 306 304 305 306 308 309 310 305 295 291 289 283 279 279 277 273 269 267 266
55 55 54 52 49 48 45 41 39 35 30 28 25 21 17 14 10 2 350 336 324 317 315 312 307 304 304 303 303 306 307 301 295 290 286 280 278 277 274 271 269 265
59 58 57 56 54 53 50 47 45 42 39 36 32 29 25 22 18 11 3 354 342 332 325 320 315 310 305 301 299 300 303 303 298 292 288 285 282 279 276 272 269 265
60 57 57 57 55 53 50 47 46 44 42 39 34 32 30 29 27 22 15 7 358 352 344 337 332 325 317 310 303 298 298 301 301 297 293 291 286 281 277 272 267 263
59 55 54 53 51 49 45 43 42 41 40 38 34 33 31 29 28 25 22 16 11 6 360 354 349 344 339 332 321 311 303 302 303 301 299 295 289 283 278 273 268 263
61 56 53 51 48 46 41 37 35 33 33 32 30 29 26 24 22 19 18 16 14 12 8 4 360 356 351 342 333 326 317 310 305 303 300 297 293 289 283 277 272 265
60 55 52 51 48 44 39 35 32 30 28 26 23 21 18 16 15 14 14 13 11 11 9 8 6 1 354 344 337 335 330 323 315 307 300 296 294 292 288 282 275 266
57 54 52 51 49 43 37 34 31 31 30 27 23 20 17 15 14 14 13 12 11 10 9 8 7 4 356 345 339 339 338 335 326 314 305 297 290 288 287 283 277 269
57 56 55 51 47 41 37 36 36 35 34 33 31 27 23 20 19 18 17 15 13 12 11 9 8 6 1 353 344 341 345 347 338 324 315 302 287 278 276 277 278 277
58 59 58 53 47 42 41 42 43 42 40 39 37 34 30 27 24 22 21 19 17 16 14 12 11 9 5 1 354 347 350 354 347 333 321 308 294 281 274 274 277 279
60 61 60 57 52 48 47 47 46 46 45 44 42 39 36 32 29 27 25 23 21 19 17 16 16 13 8 5 2 357 355 355 350 341 330 315 301 291 284 279 275 274
59 61 61 60 56 52 50 48 47 47 47 46 44 43 40 36 33 30 29 27 24 22 20 19 18 16 13 9 6 4 360 354 352 351 345 334 319 306 296 286 278 272
58 59 60 60 57 54 51 49 47 47 47 45 44 44 42 40 36 33 31 29 27 25 22 19 18 17 16 13 11 10 7 360 356 354 350 346 339 329 318 303 289 276
56 56 58 58 57 56 53 51 49 48 47 46 45 45 45 43 40 36 34 32 30 29 27 23 19 16 15 14 15 15 14 10 4 358 353 352 349 342 337 328 310 290
55 55 55 55 55 56 55 53 52 50 50 50 48 47 47 45 42 39 37 35 34 32 31 29 26 20 15 14 15 17 19 17 12 6 2 0 355 349 344 339 332 315
56 55 54 52 52 54 54 54 53 52 51 51 50 49 48 46 44 41 39 37 36 34 33 32 30 26 21 17 16 18 21 20 17 14 12 8 1 355 349 341 341 345